Location: Cisewo
(53.3833°N, 14.9000°E)
Time: 21:07:58
(UTC+00:00)

X-37B - Visible Passes

Search period start: 12 June 2021 00:00
Search period end: 22 June 2021 00:00
Orbit: 386 x 389 km, 45.0° (Epoch: 10 June)

Date Brightness Start Highest point End Pass type
(mag) Time Alt. Az. Time Alt. Az. Time Alt. Az.
14 Jun 2.7 01:28:30 10° SSW 01:30:10 13° SSE 01:31:49 10° SE visible
15 Jun 3.0 00:32:04 10° SSE 00:32:05 10° SSE 00:32:40 10° SSE visible
16 Jun 2.4 01:08:13 12° SSW 01:09:48 16° S 01:11:52 10° SE visible
17 Jun 2.7 00:12:08 13° SSE 00:12:08 13° SSE 00:13:22 10° SE visible
18 Jun 2.2 00:48:21 15° SSW 00:49:28 18° S 00:51:43 10° SE visible
18 Jun 2.6 23:52:21 14° SE 23:52:21 14° SE 23:53:25 10° SE visible
19 Jun 2.2 01:25:05 10° SW 01:27:16 17° S 01:29:27 10° SE visible
20 Jun 2.1 00:28:46 18° S 00:29:08 18° S 00:31:25 10° SE visible
20 Jun 3.1 23:33:13 10° SE 23:33:13 10° SE 23:33:15 10° SE visible
21 Jun 2.4 01:05:32 12° SW 01:06:55 15° SSW 01:08:49 10° SSE visible
